Regional Weather Roundup
Issued by NWS Kansas City/Pleasant Hill, MO

Home | Current Version | Previous Version | Graphics & Text | Print | Product List | Glossary Off
Versions: 1 2 3 4 5 6 7 8 9 10 11 12 13 14 15 16 17 18 19 20 21 22 23 24 25 26 27 28

000
ASUS43 KEAX 162310
RWREAX

WEATHER ROUNDUP FOR EASTERN KANSAS AND NORTHWEST MISSOURI
NATIONAL WEATHER SERVICE KANSAS CITY/PLEASANT HILL MO
500 PM CST TUE JAN 16 2018

KSZ040-057-103>105-MOZ028-029-037-043-170000-
...KANSAS CITY METROPOLITAN AREA...

CITY           SKY/WX    TMP DP  RH WIND       PRES   REMARKS
K.C. INTL      PTCLDY     7  -1  70 NW8       30.71S WCI  -6
K.C. DOWNTOWN  PTCLDY    10   0  63 W8        30.74S WCI  -2
LEES SUMMIT    CLEAR      9   0  67 NW9       30.70F WCI  -4
OLATHE - IXD   CLEAR      8   1  73 NW7       30.71F WCI  -3
OLATHE - OJC   CLEAR      8   0  69 NW10      30.70F WCI  -6
LAWRENCE       CLEAR     11   2  67 W6        30.73F WCI   1

$$

MOZ001>008-011>017-020>025-030>033-038>040-044>046-053-054-170000-
...NORTHERN AND CENTRAL MISSOURI...

CITY           SKY/WX    TMP DP  RH WIND       PRES   REMARKS
ST. JOSEPH     CLEAR      8   1  73 NW7       30.74S WCI  -3
MOSBY            N/A     10   1  67 NW7       30.73F WCI   0
WARRENSBURG    CLEAR     10   1  67 NW3       30.72S
WHITEMAN AFB   CLEAR      9  -1  62 NW7       30.66S WCI  -2
CLINTON        PTCLDY     9   0  66 NW6       30.72F WCI  -1
SEDALIA        CLEAR      9   2  73 NW8       30.70S WCI  -3
WARSAW         NOT AVBL
CHILLICOTHE    NOT AVBL
KIRKSVILLE     CLEAR      9   2  73 W8        30.66R WCI  -3

$$

MOZ041-047>049-056>058-063>065-088>090-097-170000-
...EASTERN AND SOUTHERN MISSOURI...

CITY           SKY/WX    TMP DP  RH WIND       PRES   REMARKS
ST. LOUIS INTL PTCLDY     8   0  69 W10       30.66S WCI  -6
SPIRIT OF STL  PTCLDY     9   0  67 W12       30.68R WCI  -6
COLUMBIA       PTCLDY     7  -1  70 W8        30.68R WCI  -6
JEFFERSON CITY CLOUDY     9   0  67 NW12      30.72S WCI  -6
ROLLA          CLEAR      5  -2  72 W9        30.65R WCI  -9
OSAGE BEACH    PTCLDY     9  -1  64 NW3       30.70S
SPRINGFIELD    CLOUDY     7  -1  70 W7        30.66S WCI  -5
BRANSON        PTCLDY     7  -2  66 NW10      30.67R WCI  -8
JOPLIN         PTCLDY     7   0  72 NW7       30.73F WCI  -5
WEST PLAINS    CLEAR      9  -3  58 NW8       30.62S WCI  -3

$$

IAZ060-094-KSZ022-034>040-054-083-096-NEZ052-066-093-170000-
...KANSAS...SOUTHEAST NEBRASKA AND IOWA...

CITY           SKY/WX    TMP DP  RH WIND       PRES   REMARKS
TOPEKA         CLEAR     13   3  64 NW8       30.73S WCI   2
MANHATTAN      CLEAR     13   3  64 NW5       30.74S WCI   5
EMPORIA        PTCLDY    11   3  70 NW9       30.71S WCI  -2
CHANUTE        CLEAR     12   3  67 NW7       30.73F WCI   1
WICHITA        PTCLDY    15   6  67 N8        30.70F WCI   4
OMAHA          CLEAR     10   1  67 NW7       30.70F WCI  -1
LINCOLN        CLEAR     15   4  61 N7        30.70F WCI   5
FALLS CITY     CLEAR      8   0  69 NW9       30.72F WCI  -5
LAMONI         PTCLDY     7  -1  70 NW9       30.66S WCI  -7
DES MOINES     PTCLDY     5  -2  72 NW10      30.67S WCI -10

$$





USA.gov is the U.S. government's official web portal to all federal, state and local government web resources and services.